When you browse on this site, cookies collect data to enhance your experience and personalize the content and advertising you see.
Visit our Privacy Policy to learn more. By continuing to use the site, you agree to this use of cookies and data.
  • în România
  • Lista ţărilor
  • Pe 7 zile
  • Temperatura apei
  • Meteo pe hartă
  • Widget-uri
  • user-avatar
    Intrare

    Meteo pe oră la Salgotarjan

    Astăzi, 11 Decembrie, Miercuri

    Timp Temperatura Precipitaţii Vânt Presiune Umiditate
    00:00 +1°C° 0 mm 1 m/s 735 mmHg 80%
    01:00 0°C° 0 mm 1 m/s 735 mmHg 79%
    02:00 0°C° 0 mm 1 m/s 735 mmHg 79%
    03:00 0°C° 0 mm 1 m/s 734 mmHg 79%
    04:00 0°C° 0 mm 1 m/s 734 mmHg 79%
    05:00 0°C° 0 mm 1 m/s 734 mmHg 78%
    06:00 0°C° 0 mm 1 m/s 734 mmHg 78%
    07:00 -1°C° 0 mm 1 m/s 734 mmHg 76%
    08:00 0°C° 0 mm 1 m/s 734 mmHg 71%
    09:00 0°C° 0 mm 0 m/s 734 mmHg 67%
    10:00 +1°C° 0 mm 0 m/s 733 mmHg 63%
    11:00 +2°C° 0 mm 0 m/s 733 mmHg 61%
    12:00 +2°C° 0 mm 0 m/s 732 mmHg 59%
    13:00 +3°C° 0 mm 0 m/s 732 mmHg 57%
    14:00 +2°C° 0 mm 0 m/s 731 mmHg 62%
    15:00 0°C° 0 mm 0 m/s 731 mmHg 68%
    16:00 -1°C° 0 mm 0 m/s 730 mmHg 73%
    17:00 -1°C° 0 mm 0 m/s 730 mmHg 75%
    18:00 -1°C° 0 mm 0 m/s 730 mmHg 76%
    19:00 -1°C° 0 mm 0 m/s 730 mmHg 78%
    20:00 -1°C° 0 mm 0 m/s 730 mmHg 77%
    21:00 -1°C° 0 mm 0 m/s 729 mmHg 76%
    22:00 -1°C° 0 mm 0 m/s 729 mmHg 76%
    23:00 0°C° 0 mm 1 m/s 729 mmHg 77%

    Mâine, 12 Decembrie, Joi

    Timp Temperatura Precipitaţii Vânt Presiune Umiditate
    00:00 0°C° 0 mm 1 m/s 728 mmHg 77%
    01:00 0°C° 0 mm 1 m/s 728 mmHg 78%
    02:00 0°C° 0 mm 1 m/s 727 mmHg 77%
    03:00 +1°C° 0 mm 1 m/s 727 mmHg 75%
    04:00 +1°C° 0 mm 1 m/s 726 mmHg 74%
    05:00 +1°C° 0 mm 1 m/s 726 mmHg 76%
    06:00 +1°C° 0 mm 1 m/s 726 mmHg 78%
    07:00 +1°C° 0 mm 1 m/s 726 mmHg 80%
    08:00 +1°C° 0.1 mm 1 m/s 726 mmHg 82%
    09:00 +2°C° 0.1 mm 1 m/s 725 mmHg 84%
    10:00 +2°C° 0.1 mm 1 m/s 725 mmHg 85%
    11:00 +3°C° 0.1 mm 1 m/s 725 mmHg 84%
    12:00 +3°C° 0.1 mm 1 m/s 725 mmHg 83%
    13:00 +4°C° 0.1 mm 1 m/s 725 mmHg 82%
    14:00 +3°C° 0.1 mm 1 m/s 724 mmHg 84%
    15:00 +2°C° 0.1 mm 2 m/s 724 mmHg 87%
    16:00 +2°C° 0.1 mm 2 m/s 723 mmHg 89%
    17:00 +2°C° 0.3 mm 2 m/s 723 mmHg 91%
    18:00 +3°C° 0.3 mm 1 m/s 723 mmHg 93%
    19:00 +3°C° 0.3 mm 1 m/s 723 mmHg 94%
    20:00 +3°C° 0.6 mm 1 m/s 723 mmHg 95%
    21:00 +3°C° 0.6 mm 1 m/s 722 mmHg 96%
    22:00 +3°C° 0.6 mm 1 m/s 722 mmHg 97%
    23:00 +3°C° 0.6 mm 1 m/s 721 mmHg 97%

    Poimâine, 13 Decembrie, Vineri

    Timp Temperatura Precipitaţii Vânt Presiune Umiditate
    00:00 +3°C° 0.6 mm 1 m/s 721 mmHg 97%
    01:00 +3°C° 0.6 mm 1 m/s 721 mmHg 98%
    02:00 +3°C° 0.3 mm 1 m/s 720 mmHg 98%
    03:00 +3°C° 0.3 mm 1 m/s 719 mmHg 98%
    04:00 +3°C° 0.3 mm 1 m/s 718 mmHg 98%
    05:00 +3°C° 0.1 mm 1 m/s 718 mmHg 98%
    06:00 +3°C° 0.1 mm 1 m/s 718 mmHg 98%
    07:00 +3°C° 0.1 mm 1 m/s 718 mmHg 98%
    08:00 +3°C° 0.4 mm 1 m/s 717 mmHg 98%
    09:00 +3°C° 0.4 mm 1 m/s 717 mmHg 98%
    10:00 +3°C° 0.4 mm 1 m/s 716 mmHg 98%
    11:00 +3°C° 0.4 mm 1 m/s 716 mmHg 98%
    12:00 +3°C° 0.4 mm 1 m/s 715 mmHg 98%
    13:00 +3°C° 0.4 mm 1 m/s 715 mmHg 98%
    14:00 +4°C° 0.2 mm 1 m/s 714 mmHg 98%
    15:00 +4°C° 0.2 mm 1 m/s 714 mmHg 97%
    16:00 +4°C° 0.2 mm 1 m/s 714 mmHg 97%
    17:00 +4°C° 0 mm 1 m/s 714 mmHg 97%
    18:00 +4°C° 0 mm 1 m/s 714 mmHg 97%
    19:00 +4°C° 0 mm 1 m/s 714 mmHg 96%
    20:00 +4°C° 0 mm 1 m/s 715 mmHg 96%
    21:00 +2°C° 0 mm 0 m/s 715 mmHg 96%
    22:00 +2°C° 0 mm 0 m/s 715 mmHg 96%
    23:00 +2°C° 0 mm 0 m/s 716 mmHg 96%

    14 Decembrie, Sâmbătă

    Timp Temperatura Precipitaţii Vânt Presiune Umiditate
    00:00 +2°C° 0 mm 0 m/s 716 mmHg 96%
    01:00 +2°C° 0 mm 0 m/s 717 mmHg 96%
    02:00 +2°C° 0 mm 0 m/s 717 mmHg 96%
    03:00 +2°C° 0 mm 0 m/s 717 mmHg 96%
    04:00 +3°C° 0 mm 1 m/s 718 mmHg 96%
    05:00 +2°C° 0 mm 1 m/s 718 mmHg 95%
    06:00 +2°C° 0 mm 1 m/s 719 mmHg 95%
    07:00 +2°C° 0 mm 1 m/s 720 mmHg 94%
    08:00 +2°C° 0 mm 1 m/s 721 mmHg 92%
    09:00 +3°C° 0 mm 1 m/s 721 mmHg 89%
    10:00 +4°C° 0 mm 1 m/s 722 mmHg 86%
    11:00 +4°C° 0 mm 1 m/s 722 mmHg 83%
    12:00 +5°C° 0 mm 1 m/s 722 mmHg 80%
    13:00 +4°C° 0 mm 2 m/s 723 mmHg 77%
    14:00 +3°C° 0 mm 2 m/s 723 mmHg 80%
    15:00 +4°C° 0 mm 1 m/s 724 mmHg 82%
    16:00 +3°C° 0 mm 1 m/s 724 mmHg 85%
    17:00 +3°C° 0 mm 1 m/s 725 mmHg 85%
    18:00 +2°C° 0 mm 1 m/s 725 mmHg 85%
    19:00 +2°C° 0 mm 1 m/s 726 mmHg 86%
    20:00 +2°C° 0 mm 1 m/s 726 mmHg 85%
    21:00 +3°C° 0 mm 1 m/s 727 mmHg 85%
    22:00 +3°C° 0 mm 1 m/s 728 mmHg 84%
    23:00 +3°C° 0 mm 1 m/s 728 mmHg 86%

    15 Decembrie, Duminică

    Timp Temperatura Precipitaţii Vânt Presiune Umiditate
    00:00 +2°C° 0 mm 1 m/s 728 mmHg 87%
    01:00 +2°C° 0 mm 1 m/s 728 mmHg 88%
    02:00 +2°C° 0 mm 1 m/s 728 mmHg 89%
    03:00 +2°C° 0 mm 1 m/s 729 mmHg 89%
    04:00 +2°C° 0 mm 1 m/s 729 mmHg 89%
    05:00 +2°C° 0 mm 1 m/s 729 mmHg 90%
    06:00 +2°C° 0 mm 1 m/s 729 mmHg 90%
    07:00 +2°C° 0 mm 1 m/s 730 mmHg 91%
    08:00 +2°C° 0 mm 1 m/s 730 mmHg 89%
    09:00 +3°C° 0 mm 1 m/s 730 mmHg 88%
    10:00 +3°C° 0 mm 1 m/s 731 mmHg 87%
    11:00 +4°C° 0 mm 1 m/s 731 mmHg 86%
    12:00 +5°C° 0 mm 1 m/s 730 mmHg 85%
    13:00 +5°C° 0 mm 1 m/s 730 mmHg 84%
    14:00 +5°C° 0 mm 1 m/s 730 mmHg 87%
    15:00 +4°C° 0 mm 1 m/s 730 mmHg 91%
    16:00 +3°C° 0 mm 1 m/s 730 mmHg 94%
    17:00 +3°C° 0 mm 1 m/s 731 mmHg 94%
    18:00 +2°C° 0 mm 0 m/s 731 mmHg 94%
    19:00 +2°C° 0 mm 0 m/s 731 mmHg 94%
    20:00 +2°C° 0 mm 0 m/s 732 mmHg 94%
    21:00 +2°C° 0 mm 0 m/s 733 mmHg 94%
    22:00 +2°C° 0 mm 0 m/s 733 mmHg 94%
    23:00 +2°C° 0 mm 0 m/s 733 mmHg 94%

    16 Decembrie, Luni

    Timp Temperatura Precipitaţii Vânt Presiune Umiditate
    00:00 +2°C° 0 mm 0 m/s 734 mmHg 93%
    01:00 +1°C° 0 mm 0 m/s 734 mmHg 93%
    02:00 +1°C° 0 mm 0 m/s 734 mmHg 92%
    03:00 +1°C° 0 mm 0 m/s 734 mmHg 92%
    04:00 +1°C° 0 mm 0 m/s 735 mmHg 91%
    05:00 +1°C° 0 mm 0 m/s 735 mmHg 91%
    06:00 +2°C° 0 mm 1 m/s 735 mmHg 91%
    07:00 +2°C° 0 mm 1 m/s 735 mmHg 91%
    08:00 +3°C° 0 mm 1 m/s 735 mmHg 89%
    09:00 +3°C° 0 mm 1 m/s 735 mmHg 88%
    10:00 +4°C° 0 mm 1 m/s 735 mmHg 87%
    11:00 +4°C° 0 mm 1 m/s 735 mmHg 87%
    12:00 +4°C° 0 mm 1 m/s 734 mmHg 88%
    13:00 +5°C° 0 mm 1 m/s 734 mmHg 89%
    14:00 +4°C° 0 mm 1 m/s 734 mmHg 91%
    15:00 +4°C° 0 mm 1 m/s 733 mmHg 92%
    16:00 +4°C° 0 mm 1 m/s 733 mmHg 94%
    17:00 +4°C° 0 mm 1 m/s 733 mmHg 94%
    18:00 +4°C° 0 mm 1 m/s 733 mmHg 94%
    19:00 +4°C° 0 mm 1 m/s 733 mmHg 93%
    20:00 +4°C° 0 mm 1 m/s 733 mmHg 94%
    21:00 +4°C° 0 mm 1 m/s 732 mmHg 94%
    22:00 +4°C° 0 mm 1 m/s 732 mmHg 94%
    23:00 +4°C° 0 mm 1 m/s 732 mmHg 94%
    Arată mai mult